Regional Weather Roundup
Issued by NWS Glasgow, MT

Home | Current Version | Previous Version | Text Only | Print | Product List | Glossary On
Versions: 1 2 3 4 5 6 7 8 9 10 11 12 13 14 15 16 17 18 19 20 21 22 23 24 25 26 27
000
ASUS45 KGGW 241015
RWRGGW
HOURLY REGIONAL WEATHER ROUNDUP FOR NORTHEAST MONTANA
NATIONAL WEATHER SERVICE GLASGOW MONTANA
400 AM MDT THU MAY 24 2018

NOTE: "FAIR" INDICATES FEW OR NO CLOUDS BELOW 12,000 FEET WITH NO
SIGNIFICANT WEATHER AND/OR OBSTRUCTIONS TO VISISBILITY.

NORTHEAST MONTANA


CITY           SKY/WX    TMP DP  RH WIND       PRES   REMARKS
GLASGOW        CLOUDY    59  58  96 SW3       29.78R FOG
WOLF POINT     MOCLDY    60  59  96 S3        29.77R FOG
JORDAN           N/A     58  56  93 W8        29.80S
SIDNEY         PTCLDY    54  53  97 S3        29.77F
GLENDIVE       PTCLDY    56  54  93 W5        29.82R

FORT PECK REPORTS


CITY           SKY/WX    TMP DP  RH WIND       PRES   REMARKS

SOUTHEAST MONTANA


CITY           SKY/WX    TMP DP  RH WIND       PRES   REMARKS
BILLINGS       MOCLDY    55  51  86 SW13      29.89R
MILES CITY     MOCLDY    56  56 100 S5        29.83S
BAKER          PTCLDY    52  52 100 SE5       29.84S
LIVINGSTON     PTCLDY    55  45  68 W18G33    29.94R

CENTRAL MONTANA


CITY           SKY/WX    TMP DP  RH WIND       PRES   REMARKS
HAVRE          MOCLDY    53  52  96 SW3       29.80F
LEWISTOWN      PTCLDY    46  44  93 SW7       29.88F
GREAT FALLS    MOCLDY    56  48  74 S10       29.85S
CUT BANK       PTCLDY    50  46  86 NW7       29.82F
HELENA         CLOUDY    54  50  86 CALM      29.91S
BUTTE          MOCLDY    50  46  86 CALM      30.01R
BOZEMAN        PTCLDY    47  45  93 SE8       29.97R

WESTERN MONTANA


CITY           SKY/WX    TMP DP  RH WIND       PRES   REMARKS
MISSOULA       MOCLDY    53  51  93 CALM      29.92R FOG
KALISPELL      NOT AVBL

NORTH DAKOTA


CITY           SKY/WX    TMP DP  RH WIND       PRES   REMARKS
WILLISTON      MOCLDY    59  56  89 W10       29.77R
DICKINSON      PTCLDY    58  54  86 S9        29.80F
MINOT          CLOUDY    63  61  93 SE12      29.77S FOG
BISMARCK       LGT RAIN  66  60  81 E3        29.80R

SOUTHERN SASKATCHEWAN


CITY           SKY/WX    TMP DP  RH WIND       PRES   REMARKS
REGINA         PTCLDY    59  55  88 N5        29.77F THUNDER
MOOSE JAW      FOG       55  55 100 W6        29.79  THUNDER VSB 3/4
ESTEVAN        MOCLDY    55  55 100 SE3       29.77R
SWIFT CURRENT  FOG       52  50  93 S8        29.78F VSB 3/4





USA.gov is the U.S. government's official web portal to all federal, state and local government web resources and services.